Weather in Valday

Russia / Novgorod Oblast     57°58′48″N   33°14′48″E
temp.,
°C
wind,
m/s
gust,
m/s
humid.,
%
clouds,
%
prec.,
mm/h
press.,
hPa
HPBL,
m
19 september, sun
sun1900:00+4e41178100 0.0 1025642
03:00+2e41282100 0.0 1025493
06:00+2e51382100 0.0 1025610
09:00+4e51374100 0.0 1024686
12:00+7e61260100 0.0 10241048
15:00+7e61259100 0.0 10241052
18:00+5e61266100 0.0 1023998
21:00+5e61373100 0.1 1023971
20 september, mon
mon2000:00+5e61469100 0.0 1023989
03:00+5e61470100 0.0 1022991
06:00+4ene61479100 0.0 1022976
09:00+4ene61576100 0.0 1022989
12:00+6ene71567100 0.0 10221066
15:00+6ene71464100 0.0 10211053
18:00+4ene61480100 0.1 10211132
21:00+3ene61497100 0.6 1022950
21 september, tue
tue2100:00+2ene51397100 0.4 1021837
03:00+3ene51297100 0.8 1020785
06:00+3ene51197100 0.1 1019750
09:00+3ene51197100 0.1 1018738
12:00+3ene41097100 0.5 1018654
15:00+3ene41097100 1.2 1017530
18:00+3ene41098100 0.4 1017683
21:00+4ene4998100 1.2 1017677
22 september, wed
wed2200:00+4ene4997100 0.1 1017573
03:00+5ene41098100 0.1 1017506
06:00+5ene41097100 0.1 1018547
09:00+5ene41097100 0.1 1018570
12:00+5ene41096100 0.1 1018746
15:00+6ene4997100 1.1 1018945
18:00+5e4896100 0.5 1019868
21:00+5e3898100 0.6 1019557
23 september, thu
thu2300:00+5e3797100 0.0 1019436
03:00+5e389797 0.0 1018358
06:00+5ese3798100 0.0 1018346
09:00+6ese3797100 0.0 1017331
12:00+6ese369599 0.0 1016359
15:00+9se358288 0.1 1015703
18:00+8ese3787100 0.1 1013396
21:00+7ese2893100 0.2 1012347